sat.trackr.live / text

‹ back to catalog

STARLINK-36401

NORAD 67696 · 2026-025D

PAYLOAD ACTIVE UNKNOWN

§ Identity

Operator
Country
US
Launch date
2026-02-07
Launch site
AFWTR
Launch vehicle
Mass (kg)
RCS (m²)

Purposes: comms

External: N2YO · Heavens-Above · Gunter

§ Orbital elements

Epoch: 2026-09-19T13:24:20.117952Z

Period
93.91 min
Inclination
97.2851°
Eccentricity
0.0000816
Mean motion
15.33452969 rev/d
Perigee alt
465.0 km
Apogee alt
466.1 km
Semi-major
6,843.7 km
B*
6.2725e-4
RAAN
12.5053°
Arg perigee
90.1269°
Mean anomaly
270.0068°
Rev number
3,572

§ Raw data

STARLINK-364011 67696U 26025D   26262.55856618  .00020234  00000+0  62725-3 0  99962 67696  97.2851  12.5053 0000816  90.1269 270.0068 15.33452969 35723

JSON: /api/v1/satellites/67696 · /tle

For live sub-satellite position, see the globe view (requires WebGL).

§ Visibility from observer

Set your observer location to see the next 7 days of passes ≥ 10°. The values pass through the URL so the page stays shareable.

No JS? Fill the form by hand. The geolocation button needs JavaScript.